Location: Lynch Observatory
(39.9540°N, 75.1861°W)
Time: 00:24:23
(UTC-04:00)

ZACube-1 - Pass Details

Date: 02 May 2024
Orbit: 566 x 635 km, 97.7° (Epoch: 27 May)

Event Time Altitude Azimuth Distance (km) Brightness Sun altitude
Rises 03:28:44 0° 20° (NNE) 2,942 ? -24.3°
Reaches altitude 10° 03:31:03 10° 27° (NNE) 2,031 ? -24.0°
Maximum altitude 03:35:15 41° 98° (E) 925 ? -23.5°
Enters shadow 03:36:43 31° 142° (SE) 1,118 ? -23.3°
